Radiation Dose at Monitoring Post of Fukushima Daini Nuclear Power Station
Date,Time,MP-1(microSv/h),MP-2(microSv/h),MP-3(microSv/h),MP-4(microSv/h),MP-5(microSv/h),MP-6(microSv/h),MP-7(microSv/h),Wind Direction,Wind Velocity(m/s),Rain
2019/07/26,00:00,0.183,0.165,0.270,0.259,0.262,0.139,0.086,-,CALM,No
2019/07/26,00:10,0.181,0.164,0.274,0.259,0.265,0.137,0.087,-,CALM,No
2019/07/26,00:20,0.181,0.162,0.273,0.257,0.262,0.136,0.086,southwest,0.7,No
2019/07/26,00:30,0.183,0.163,0.271,0.257,0.262,0.138,0.086,southwest,0.9,No
2019/07/26,00:40,0.182,0.165,0.274,0.260,0.266,0.138,0.087,south-southwest,1.1,No
2019/07/26,00:50,0.182,0.163,0.275,0.259,0.264,0.137,0.087,southwest,0.7,No
2019/07/26,01:00,0.182,0.163,0.272,0.256,0.262,0.138,0.086,-,CALM,No
2019/07/26,01:10,0.183,0.166,0.274,0.260,0.265,0.139,0.086,east-southeast,0.6,No
2019/07/26,01:20,0.182,0.164,0.275,0.259,0.265,0.137,0.086,south-southeast,1.7,No
2019/07/26,01:30,0.181,0.163,0.273,0.258,0.263,0.138,0.087,south-southwest,2.1,No
2019/07/26,01:40,0.183,0.165,0.273,0.259,0.264,0.139,0.087,south-southwest,2.8,No
2019/07/26,01:50,0.183,0.165,0.275,0.260,0.267,0.138,0.087,southwest,2.3,No
2019/07/26,02:00,0.181,0.164,0.275,0.258,0.264,0.138,0.087,south-southwest,1.4,No
2019/07/26,02:10,0.182,0.166,0.272,0.258,0.264,0.139,0.087,south-southeast,1.5,No
2019/07/26,02:20,0.183,0.166,0.277,0.262,0.267,0.138,0.088,south-southeast,1.8,No
2019/07/26,02:30,0.182,0.165,0.275,0.259,0.264,0.138,0.087,south,1.7,No
2019/07/26,02:40,0.183,0.165,0.273,0.258,0.264,0.139,0.088,south-southeast,0.6,No
2019/07/26,02:50,0.182,0.165,0.277,0.261,0.268,0.139,0.087,south,1.1,No
2019/07/26,03:00,0.181,0.165,0.275,0.259,0.265,0.139,0.087,south,2.4,No
2019/07/26,03:10,0.182,0.165,0.274,0.259,0.264,0.139,0.087,south-southwest,2.4,No
2019/07/26,03:20,0.184,0.165,0.277,0.261,0.267,0.139,0.088,west-southwest,2.5,No
2019/07/26,03:30,0.182,0.166,0.275,0.258,0.264,0.138,0.086,southwest,1.3,No
2019/07/26,03:40,0.182,0.166,0.273,0.259,0.265,0.139,0.087,west,1.0,No
2019/07/26,03:50,0.185,0.164,0.276,0.262,0.267,0.139,0.088,west-northwest,0.8,No
2019/07/26,04:00,0.183,0.166,0.273,0.260,0.263,0.138,0.087,-,CALM,No
2019/07/26,04:10,0.181,0.166,0.275,0.258,0.265,0.139,0.088,north-northwest,0.9,No
2019/07/26,04:20,0.185,0.166,0.277,0.261,0.268,0.139,0.088,north-northeast,0.9,No
2019/07/26,04:30,0.183,0.167,0.274,0.260,0.264,0.139,0.087,northeast,1.3,No
2019/07/26,04:40,0.183,0.166,0.275,0.258,0.266,0.140,0.088,north-northeast,0.9,No
2019/07/26,04:50,0.184,0.166,0.277,0.262,0.266,0.140,0.088,north-northeast,1.1,No
2019/07/26,05:00,0.182,0.167,0.274,0.259,0.264,0.139,0.088,north,0.8,No
2019/07/26,05:10,0.183,0.166,0.275,0.259,0.266,0.140,0.088,north,1.2,No
2019/07/26,05:20,0.185,0.166,0.276,0.262,0.267,0.139,0.089,north-northwest,0.8,No
2019/07/26,05:30,0.183,0.166,0.274,0.259,0.262,0.138,0.087,-,CALM,No
2019/07/26,05:40,0.185,0.166,0.276,0.260,0.268,0.140,0.088,west-southwest,0.8,No
2019/07/26,05:50,0.183,0.166,0.277,0.261,0.266,0.140,0.089,southeast,0.9,No
2019/07/26,06:00,0.183,0.167,0.274,0.258,0.263,0.139,0.088,east-southeast,1.8,No
2019/07/26,06:10,0.183,0.165,0.278,0.261,0.265,0.140,0.088,-,CALM,No
2019/07/26,06:20,0.185,0.165,0.276,0.261,0.266,0.139,0.089,south,1.4,No
2019/07/26,06:30,0.182,0.167,0.273,0.257,0.263,0.138,0.088,south,1.2,No
2019/07/26,06:40,0.181,0.164,0.274,0.258,0.263,0.139,0.087,south-southwest,1.7,No
2019/07/26,06:50,0.183,0.163,0.275,0.261,0.266,0.139,0.087,south-southeast,1.2,No
2019/07/26,07:00,0.183,0.164,0.274,0.261,0.267,0.138,0.088,-,CALM,No
2019/07/26,07:10,0.182,0.167,0.273,0.258,0.264,0.139,0.088,southwest,0.6,No
2019/07/26,07:20,0.181,0.166,0.272,0.257,0.262,0.139,0.086,south,0.6,No
2019/07/26,07:30,0.184,0.164,0.276,0.256,0.261,0.138,0.087,-,CALM,No
2019/07/26,07:40,0.183,0.163,0.275,0.255,0.264,0.137,0.087,southeast,1.6,No
2019/07/26,07:50,0.181,0.162,0.274,0.257,0.265,0.138,0.086,east-southeast,1.9,No
2019/07/26,08:00,0.180,0.162,0.271,0.257,0.264,0.139,0.087,east-southeast,2.9,No
2019/07/26,08:10,0.181,0.164,0.272,0.256,0.263,0.138,0.087,south-southeast,3.4,No
2019/07/26,08:20,0.183,0.164,0.272,0.256,0.262,0.139,0.086,south-southeast,2.6,No
2019/07/26,08:30,0.182,0.164,0.271,0.256,0.262,0.139,0.086,south,2.9,No
2019/07/26,08:40,0.182,0.164,0.271,0.257,0.261,0.138,0.086,south-southeast,3.7,No
2019/07/26,08:50,0.180,0.164,0.275,0.257,0.263,0.138,0.085,south,4.4,No
2019/07/26,09:00,0.180,0.166,0.275,0.258,0.262,0.138,0.085,south-southeast,4.5,No
2019/07/26,09:10,0.180,0.166,0.274,0.256,0.262,0.138,0.085,south-southeast,6.0,No
2019/07/26,09:20,0.183,0.164,0.272,0.257,0.262,0.138,0.086,south,6.8,No
2019/07/26,09:30,0.183,0.164,0.272,0.258,0.264,0.137,0.085,south-southeast,7.4,No
2019/07/26,09:40,0.182,0.164,0.272,0.259,0.264,0.138,0.086,south-southeast,10.1,No
2019/07/26,09:50,0.181,0.164,0.271,0.258,0.264,0.138,0.085,south-southeast,8.4,No
2019/07/26,10:00,0.181,0.164,0.271,0.259,0.263,0.138,0.086,south-southeast,8.8,No
2019/07/26,10:10,0.181,0.164,0.270,0.258,0.265,0.138,0.086,south-southeast,10.1,No
2019/07/26,10:20,0.181,0.164,0.271,0.258,0.264,0.139,0.085,south-southeast,9.8,No
2019/07/26,10:30,0.182,0.164,0.272,0.258,0.263,0.138,0.086,south-southeast,10.9,No
2019/07/26,10:40,0.181,0.164,0.272,0.260,0.264,0.138,0.086,south-southeast,10.7,No
2019/07/26,10:50,0.181,0.164,0.273,0.259,0.263,0.138,0.086,south-southeast,11.5,No
2019/07/26,11:00,0.181,0.164,0.273,0.258,0.263,0.138,0.085,south-southeast,11.4,No
2019/07/26,11:10,0.181,0.164,0.274,0.259,0.264,0.137,0.085,south-southeast,10.7,No
2019/07/26,11:20,0.182,0.164,0.275,0.259,0.264,0.137,0.085,south-southeast,10.7,No
2019/07/26,11:30,0.181,0.164,0.275,0.258,0.264,0.137,0.086,south-southeast,7.9,No
2019/07/26,11:40,0.181,0.164,0.275,0.259,0.264,0.138,0.086,south-southeast,10.7,No
2019/07/26,11:50,0.181,0.165,0.275,0.260,0.262,0.137,0.087,south-southeast,10.7,No
2019/07/26,12:00,0.181,0.164,0.276,0.259,0.261,0.139,0.086,south-southeast,10.9,No
2019/07/26,12:10,0.181,0.164,0.276,0.259,0.263,0.138,0.087,south-southeast,10.9,No
2019/07/26,12:20,0.181,0.165,0.275,0.259,0.263,0.138,0.086,south-southeast,10.7,No
2019/07/26,12:30,0.183,0.165,0.274,0.260,0.264,0.138,0.086,south,11.8,No
2019/07/26,12:40,0.182,0.164,0.275,0.259,0.263,0.138,0.086,south,10.3,No
2019/07/26,12:50,0.181,0.164,0.274,0.260,0.264,0.138,0.085,south,11.1,No
2019/07/26,13:00,0.182,0.164,0.274,0.260,0.263,0.138,0.086,south,10.7,No
2019/07/26,13:10,0.182,0.164,0.275,0.259,0.263,0.138,0.086,south,11.8,No
2019/07/26,13:20,0.182,0.166,0.274,0.259,0.265,0.138,0.086,south-southeast,10.7,No
2019/07/26,13:30,0.181,0.165,0.275,0.261,0.265,0.137,0.086,south,11.5,No
2019/07/26,13:40,0.181,0.165,0.275,0.259,0.265,0.139,0.086,south-southeast,10.3,No
2019/07/26,13:50,0.182,0.164,0.274,0.259,0.263,0.138,0.086,south,10.7,No
2019/07/26,14:00,0.182,0.165,0.274,0.260,0.265,0.138,0.086,south,11.3,No
2019/07/26,14:10,0.182,0.164,0.275,0.260,0.263,0.138,0.086,south-southeast,10.4,No
2019/07/26,14:20,0.183,0.164,0.275,0.260,0.265,0.139,0.085,south-southeast,10.7,No
2019/07/26,14:30,0.182,0.165,0.273,0.259,0.264,0.138,0.085,south-southeast,10.4,No
2019/07/26,14:40,0.182,0.165,0.275,0.259,0.263,0.138,0.087,south,10.4,No
2019/07/26,14:50,0.182,0.165,0.275,0.260,0.263,0.138,0.086,south,12.5,No
2019/07/26,15:00,0.181,0.164,0.275,0.259,0.263,0.139,0.087,south,12.6,No
2019/07/26,15:10,0.183,0.165,0.274,0.258,0.263,0.138,0.086,south,11.2,No
2019/07/26,15:20,0.182,0.165,0.274,0.259,0.263,0.139,0.086,south,10.1,No
2019/07/26,15:30,0.182,0.165,0.274,0.259,0.264,0.138,0.086,south,9.8,No
2019/07/26,15:40,0.182,0.164,0.274,0.260,0.264,0.138,0.085,south,9.5,No
2019/07/26,15:50,0.181,0.164,0.273,0.258,0.264,0.138,0.086,south,8.3,No
2019/07/26,16:00,0.182,0.165,0.274,0.258,0.264,0.139,0.087,south-southeast,10.7,No
2019/07/26,16:10,0.182,0.165,0.274,0.258,0.264,0.138,0.086,south-southeast,12.9,No
2019/07/26,16:20,0.181,0.165,0.274,0.259,0.263,0.139,0.086,south-southeast,10.9,No
2019/07/26,16:30,0.182,0.164,0.274,0.259,0.266,0.138,0.085,south,11.3,No
2019/07/26,16:40,0.180,0.163,0.274,0.259,0.263,0.139,0.086,south,10.4,No
2019/07/26,16:50,0.182,0.164,0.273,0.260,0.263,0.139,0.086,south,10.7,No
2019/07/26,17:00,0.182,0.163,0.273,0.262,0.264,0.138,0.086,south,9.0,No
2019/07/26,17:10,0.182,0.162,0.274,0.262,0.264,0.138,0.087,south,8.7,No
2019/07/26,17:20,0.181,0.163,0.273,0.260,0.264,0.139,0.086,south-southwest,6.2,No
2019/07/26,17:30,0.182,0.164,0.273,0.260,0.263,0.138,0.085,south,6.6,No
2019/07/26,17:40,0.181,0.164,0.277,0.260,0.263,0.139,0.085,south,8.1,No
2019/07/26,17:50,0.182,0.163,0.276,0.258,0.263,0.138,0.086,south,10.7,No
2019/07/26,18:00,0.180,0.163,0.276,0.258,0.264,0.140,0.086,south,9.0,No
2019/07/26,18:10,0.182,0.163,0.275,0.262,0.262,0.137,0.086,south,7.6,No
2019/07/26,18:20,0.181,0.166,0.275,0.263,0.263,0.140,0.085,south,8.7,No
2019/07/26,18:30,0.182,0.165,0.273,0.261,0.263,0.139,0.085,south,8.2,No
2019/07/26,18:40,0.183,0.165,0.275,0.261,0.261,0.139,0.086,south,8.6,No
2019/07/26,18:50,0.182,0.165,0.278,0.259,0.266,0.138,0.087,south,9.0,No
2019/07/26,19:00,0.182,0.163,0.278,0.258,0.267,0.139,0.087,south-southeast,7.0,No
2019/07/26,19:10,0.181,0.164,0.274,0.262,0.265,0.139,0.086,south,8.7,No
2019/07/26,19:20,0.180,0.165,0.274,0.262,0.262,0.139,0.086,south,7.6,No
2019/07/26,19:30,0.183,0.166,0.274,0.261,0.262,0.139,0.086,south,8.2,No
2019/07/26,19:40,0.184,0.165,0.278,0.259,0.264,0.139,0.087,south,8.7,No
2019/07/26,19:50,0.182,0.164,0.277,0.258,0.266,0.138,0.086,south,8.8,No
2019/07/26,20:00,0.180,0.165,0.276,0.262,0.265,0.138,0.086,south,10.1,No
2019/07/26,20:10,0.181,0.165,0.274,0.262,0.264,0.139,0.086,south,8.2,No
2019/07/26,20:20,0.184,0.166,0.273,0.262,0.263,0.139,0.086,south,8.2,No
2019/07/26,20:30,0.183,0.163,0.276,0.260,0.264,0.139,0.087,south,10.0,No
2019/07/26,20:40,0.182,0.164,0.278,0.258,0.267,0.137,0.086,south-southwest,9.0,No
2019/07/26,20:50,0.181,0.165,0.276,0.262,0.265,0.139,0.086,south-southwest,8.2,No
2019/07/26,21:00,0.181,0.166,0.274,0.262,0.263,0.138,0.086,south,8.8,No
2019/07/26,21:10,0.183,0.164,0.273,0.260,0.263,0.139,0.087,south,8.8,No
2019/07/26,21:20,0.183,0.164,0.276,0.260,0.265,0.139,0.087,south,10.0,No
2019/07/26,21:30,0.183,0.164,0.277,0.259,0.267,0.138,0.086,south,8.8,No
2019/07/26,21:40,0.181,0.165,0.276,0.262,0.265,0.138,0.085,south,8.7,No
2019/07/26,21:50,0.183,0.166,0.276,0.262,0.262,0.139,0.086,south,7.9,No
2019/07/26,22:00,0.182,0.165,0.274,0.261,0.263,0.140,0.087,south,7.5,No
2019/07/26,22:10,0.183,0.164,0.278,0.259,0.267,0.138,0.086,south,8.7,No
2019/07/26,22:20,0.181,0.166,0.277,0.259,0.266,0.138,0.086,south,7.8,No
2019/07/26,22:30,0.181,0.166,0.275,0.262,0.263,0.138,0.086,south,9.2,No
2019/07/26,22:40,0.183,0.164,0.273,0.262,0.261,0.139,0.087,south,6.6,No
2019/07/26,22:50,0.184,0.165,0.274,0.260,0.264,0.139,0.086,south,6.5,No
2019/07/26,23:00,0.183,0.164,0.279,0.259,0.267,0.139,0.087,south,6.3,No
2019/07/26,23:10,0.181,0.166,0.278,0.261,0.264,0.139,0.086,south,8.4,No
2019/07/26,23:20,0.181,0.165,0.275,0.264,0.262,0.138,0.087,south,8.2,No
2019/07/26,23:30,0.183,0.165,0.274,0.262,0.261,0.139,0.086,south,8.5,No
2019/07/26,23:40,0.183,0.163,0.275,0.260,0.267,0.139,0.087,south,9.0,No
2019/07/26,23:50,0.183,0.165,0.278,0.259,0.266,0.139,0.086,south,9.2,No
